Погода в Пайгусове

Россия / Республика Марий Эл     56°10′47″N   46°18′09″E
темп.,
°C
ветер,
м/с
пор.,
м/с
влажн.,
%
обл.,
%
осадки,
мм/ч
давл.,
гПа
погр.,
м
9 мая, вс
вс900:00+11юв5138681 0.0 1010350
03:00+10ююв31191100 0.0 1009222
06:00+11ююв31087100 0.2 1009319
09:00+16ююв61466100 0.2 1009715
12:00+19ю61059100 0.3 10091133
15:00+15ююв51280100 0.8 1009674
18:00+16ююв51179100 1.2 1009483
21:00+13ю31090100 3.4 1011262
10 мая, пн
пн1000:00+12зюз3795100 0.3 1013312
03:00+10зсз3797100 0.3 1016388
06:00+8ссз4795100 0.3 1018326
09:00+8ссз4895100 0.7 1021385
12:00+8ссз3694100 0.9 1024425
15:00+8с4794100 1.9 1026433
18:00+9с4791100 0.2 1026449
21:00+7ссв4996100 0.2 1028347
11 мая, вт
вт1100:00+6ссв399799 0.0 1028290
03:00+5ссв3998100 0.0 1029255
06:00+7ссв499233 0.0 1030318
09:00+13св467684 0.0 1030541
12:00+18св456179 0.0 1029866
15:00+19св4557100 0.0 10291067
18:00+18св367299 0.0 1029226
21:00+13св388892 0.0 1029142
12 мая, ср
ср1200:00+11всв3991100 0.0 1030176
03:00+10всв39935 0.0 1029173
06:00+13всв388516 0.0 1029220
09:00+19в456693 0.0 1029489
12:00+23вюв454977 0.0 10291308
15:00+24вюв564519 0.0 10282137
18:00+21вюв386393 0.0 1027268
21:00+16вюв3476100 0.0 102758
13 мая, чт
чт1300:00+14в2371100 0.0 102754
03:00+13в237289 0.0 102753
06:00+15вюв3979100 0.0 1027226
09:00+21вюв585727 0.0 1026609
12:00+23юв694631 0.0 10261849
15:00+23юв5847100 0.0 10241915
18:00+19ююв3106097 0.0 1024442
21:00+17юв31066100 0.0 1024296